This demonstration page uses our WeatherBlox Daily Observations layout. Learn more.

Left ArrowRight Arrow

40.92945, -100.16068

Hourly Observations for March 8, 2021

Temp ( °F °C ) Dew Point ( °F °C ) Humidity (%) Winds ( mph kmh ) Pressure ( in mb ) Visibility ( mi km ) Precip ( " mm )
12:15 am 00:15 Clear 40 4.5 33 0.8 77 77 SE 3 6 30.17 1022 10 16 N/A
12:35 am 00:35 Clear 40 4.4 35 1.5 82 82 N N/A 30.16 1021 10 16 N/A
12:55 am 00:55 Clear 40 4.6 34 0.9 77 77 ESE 5 7 30.16 1021 10 16 N/A
1:15 am 01:15 Clear 38 3.6 33 0.7 82 82 N N/A 30.17 1022 10 16 N/A
1:35 am 01:35 Clear 38 3.3 33 0.5 82 82 N N/A 30.17 1022 10 16 N/A
1:55 am 01:55 Clear 38 3.4 32 0.2 80 80 E 3 6 30.17 1022 10 16 N/A
2:15 am 02:15 Clear 37 2.5 32 0.2 85 85 E 5 7 30.18 1022 10 16 N/A
2:35 am 02:35 Clear 37 3 33 0.4 83 83 E 6 9 30.17 1022 10 16 N/A
2:55 am 02:55 Clear 37 2.8 32 0.2 83 83 E 6 9 30.17 1022 10 16 N/A
3:15 am 03:15 Clear 37 3 33 0.3 83 83 E 5 7 30.16 1021 10 16 N/A
3:35 am 03:35 Clear 39 3.7 33 0.6 80 80 E 5 7 30.15 1021 10 16 N/A
3:55 am 03:55 Clear 37 2.7 33 0.5 86 86 ESE 5 7 30.16 1021 10 16 N/A
4:15 am 04:15 Clear 38 3.4 34 0.9 84 84 E 6 9 30.15 1021 10 16 N/A
4:35 am 04:35 Clear 38 3.5 34 1 84 84 ESE 6 9 30.15 1021 10 16 N/A
4:55 am 04:55 Clear 38 3.2 34 1 86 86 ESE 7 11 30.17 1022 10 16 N/A
5:15 am 05:15 Clear 37 2.9 33 0.8 86 86 E 6 9 30.17 1022 10 16 N/A
5:35 am 05:35 Clear 37 2.6 33 0.6 87 87 E 5 7 30.17 1022 10 16 N/A
5:55 am 05:55 Clear 37 2.7 33 0.8 87 87 ESE 6 9 30.17 1022 10 16 N/A
6:15 am 06:15 Clear 37 2.6 33 0.7 87 87 ESE 5 7 30.18 1022 10 16 N/A
6:35 am 06:35 Clear 36 2 33 0.3 89 89 ESE 5 7 30.18 1022 10 16 N/A
6:55 am 06:55 Clear 36 2.1 33 0.4 89 89 ESE 5 7 30.18 1022 10 16 N/A
7:15 am 07:15 Sunny 35 1.8 33 0.3 90 90 ESE 5 7 30.17 1022 10 16 N/A
7:35 am 07:35 Sunny 36 2 33 0.5 90 90 E 5 7 30.18 1022 10 16 N/A
7:55 am 07:55 Sunny 37 3 34 1.2 88 88 E 3 6 30.18 1022 10 16 N/A
8:15 am 08:15 Sunny 40 4.2 36 2 86 86 N N/A 30.18 1022 10 16 N/A
8:35 am 08:35 Sunny 41 4.8 36 2.2 83 83 ESE 5 7 30.16 1021 10 16 N/A
8:55 am 08:55 Sunny 43 6.1 37 2.7 79 79 SE 7 11 30.15 1021 10 16 N/A
9:15 am 09:15 Sunny 44 6.9 38 3.2 78 78 SE 7 11 30.14 1021 10 16 N/A
9:35 am 09:35 Sunny 46 8 38 3.6 74 74 SE 7 11 30.13 1020 10 16 N/A
9:58 am 09:58 Sunny 50 10 39 4 67 67 SSE 12 19 30.10 1019 10 16 N/A
10:15 am 10:15 Sunny 52 10.9 39 4.1 63 63 SSE 10 17 30.09 1019 10 16 N/A
10:35 am 10:35 Sunny 53 11.8 39 4.1 60 60 SSE 12 19 30.08 1019 10 16 N/A
10:55 am 10:55 Sunny 55 12.9 39 3.9 55 55 SSE 13 20 30.07 1018 10 16 N/A
11:15 am 11:15 Sunny 56 13.6 39 3.7 51 51 SE 12 19 30.05 1018 10 16 N/A
11:35 am 11:35 Sunny 58 14.2 39 3.9 50 50 ESE 13 20 30.03 1017 10 16 N/A
11:55 am 11:55 Sunny 58 14.2 39 3.7 49 49 SE 13 20 30.03 1017 10 16 N/A
12:15 pm 12:15 Sunny 60 15.6 39 4 46 46 SE 13 20 30.02 1017 10 16 N/A
12:35 pm 12:35 Sunny 62 16.7 39 3.8 42 42 SE 18 30 29.99 1016 10 16 N/A
12:55 pm 12:55 Sunny 62 16.7 39 3.9 43 43 SSE 15 24 29.99 1016 10 16 N/A
1:15 pm 13:15 Sunny 62 16.9 38 3.6 41 41 SSE 16 26 29.98 1015 10 16 N/A
1:35 pm 13:35 Sunny 63 17.4 38 3.3 39 39 SSE 20 31 29.96 1015 10 16 N/A
1:55 pm 13:55 Sunny 65 18.1 37 2.9 36 36 SSE 17 28 29.94 1014 10 16 N/A
2:15 pm 14:15 Sunny 65 18.1 37 2.8 36 36 SSE 20 31 29.93 1013 10 16 N/A
2:35 pm 14:35 Sunny 67 19.3 37 3 34 34 SSE 23 37 29.91 1013 10 16 0.01 0.25
2:55 pm 14:55 Sunny 65 18.6 37 3 36 36 SSE 23 37 29.91 1013 10 16 0.01 0.25
3:15 pm 15:15 Sunny 67 19.4 39 3.7 36 36 SSE 22 35 29.90 1012 10 16 N/A
3:35 pm 15:35 Sunny 67 19.7 38 3.3 34 34 S 24 39 29.88 1012 10 16 N/A
3:55 pm 15:55 Sunny 67 19.6 39 3.8 35 35 SSE 25 41 29.88 1012 10 16 N/A
4:15 pm 16:15 Sunny 68 20.2 37 2.7 32 32 SSE 26 43 29.85 1011 10 16 N/A
4:35 pm 16:35 Sunny 68 19.9 37 2.7 32 32 S 28 44 29.86 1011 10 16 N/A
4:55 pm 16:55 Sunny 67 19.6 38 3.5 35 35 SSE 28 44 29.86 1011 10 16 N/A
5:15 pm 17:15 Sunny 66 19.1 38 3.2 35 35 S 28 44 29.86 1011 10 16 N/A
5:35 pm 17:35 Sunny 65 18.6 38 3.5 37 37 S 23 37 29.85 1011 10 16 N/A
5:55 pm 17:55 Sunny 65 18.2 38 3.5 38 38 SSE 22 35 29.86 1011 10 16 N/A
6:15 pm 18:15 Sunny 64 17.7 38 3.6 39 39 SSE 21 33 29.86 1011 10 16 N/A
6:35 pm 18:35 Sunny 64 17.5 39 3.7 40 40 SSE 22 35 29.87 1012 10 16 N/A
6:55 pm 18:55 Clear 62 16.7 39 4 43 43 SSE 17 28 29.88 1012 10 16 N/A
7:15 pm 19:15 Clear 61 16.3 39 4.1 44 44 SSE 18 30 29.89 1012 10 16 N/A
7:37 pm 19:37 Clear 61 16 39 4 45 45 SE 17 28 29.89 1012 10 16 N/A
7:56 pm 19:56 Clear 61 16 39 4 45 45 SE 15 24 29.89 1012 10 16 N/A
8:10 pm 20:10 Clear 59 15.1 39 4.1 48 48 SE 16 26 29.89 1012 10 16 N/A
8:35 pm 20:35 Clear 58 14.5 40 4.3 51 51 SE 18 30 29.88 1012 10 16 N/A
8:55 pm 20:55 Clear 57 14.1 40 4.4 52 52 SE 16 26 29.88 1012 10 16 N/A
9:15 pm 21:15 Clear 56 13.6 40 4.5 54 54 SE 15 24 29.88 1012 10 16 N/A
9:35 pm 21:35 Clear 56 13.1 40 4.5 56 56 SE 12 19 29.88 1012 10 16 N/A
9:55 pm 21:55 Clear 55 13 40 4.7 57 57 SE 15 24 29.87 1012 10 16 N/A
10:15 pm 22:15 Clear 55 12.5 41 4.9 60 60 SE 15 24 29.87 1011 10 16 N/A
10:35 pm 22:35 Clear 54 12.3 41 5 61 61 SSE 15 24 29.87 1012 10 16 N/A
10:55 pm 22:55 Clear 54 12 41 5.1 63 63 SSE 13 20 29.87 1012 10 16 N/A
11:15 pm 23:15 Clear 53 11.5 41 5.2 66 66 SSE 13 20 29.88 1012 10 16 N/A
11:35 pm 23:35 Clear 52 11.2 42 5.3 67 67 SSE 14 22 29.87 1012 10 16 N/A
11:55 pm 23:55 Clear 52 11.2 42 5.5 68 68 SSE 15 24 29.87 1012 10 16 N/A

Powered by AerisWeather